Location: La Comballaz
(46.3780°N, 7.0817°E)
Time: 04:57:42
(UTC+00:00)

N. Korean satellite - Pass Details

Date: 15 December 2021
Orbit: 447 x 491 km, 97.3° (Epoch: 25 January)

Event Time Altitude Azimuth Distance (km) Brightness Sun altitude
Rises 05:48:10 0° 357° (N) 2,462 9.9 -13.1°
Enters shadow 05:49:08 - 352° (N) 2,097 9.5 -13.0°
Exits shadow 05:56:20 - 239° (WSW) 1,870 9.2 -11.8°
Sets 05:57:55 0° 229° (SW) 2,461 9.9 -11.6°
